• In Lithuania
  • List of Countries
  • For 7 days
  • Water Temperature
  • Satellite Maps
  • Weather Map
  • Weather Widgets
  • user-avatar
    Login

    Hourly Weather Sovhoznoe

    Today, 15 November, Thursday

    Time Temperature Precipitation Wind Pressure Humidity
    00:00 0°C° 0.1 mm 4 mps 689 mmHg 87%
    01:00 0°C° 0.1 mm 4 mps 688 mmHg 87%
    02:00 +1°C° 0.1 mm 3 mps 688 mmHg 88%
    03:00 +1°C° 0.1 mm 3 mps 688 mmHg 88%
    04:00 +1°C° 0.1 mm 3 mps 688 mmHg 89%
    05:00 +1°C° 0.1 mm 3 mps 688 mmHg 89%
    06:00 +1°C° 0.1 mm 3 mps 687 mmHg 90%
    07:00 +1°C° 0.1 mm 3 mps 688 mmHg 89%
    08:00 +2°C° 0.1 mm 3 mps 688 mmHg 88%
    09:00 +2°C° 0.1 mm 3 mps 688 mmHg 87%
    10:00 +2°C° 0.1 mm 3 mps 688 mmHg 85%
    11:00 +3°C° 0.1 mm 3 mps 688 mmHg 83%
    12:00 +3°C° 0.1 mm 3 mps 688 mmHg 81%
    13:00 +3°C° 0 mm 3 mps 688 mmHg 82%
    14:00 +3°C° 0 mm 3 mps 689 mmHg 83%
    15:00 +4°C° 0 mm 2 mps 689 mmHg 83%
    16:00 +4°C° 0 mm 2 mps 689 mmHg 86%
    17:00 +3°C° 0 mm 2 mps 689 mmHg 88%
    18:00 +3°C° 0 mm 2 mps 690 mmHg 90%
    19:00 +3°C° 0 mm 2 mps 690 mmHg 89%
    20:00 +3°C° 0 mm 2 mps 690 mmHg 88%
    21:00 +3°C° 0 mm 2 mps 690 mmHg 88%
    22:00 +3°C° 0 mm 2 mps 690 mmHg 87%
    23:00 +3°C° 0 mm 2 mps 690 mmHg 86%

    Tomorrow, 16 November, Friday

    Time Temperature Precipitation Wind Pressure Humidity
    00:00 +3°C° 0 mm 2 mps 690 mmHg 85%
    01:00 +2°C° 0 mm 2 mps 690 mmHg 85%
    02:00 +2°C° 0 mm 2 mps 690 mmHg 85%
    03:00 +2°C° 0 mm 2 mps 690 mmHg 85%
    04:00 +2°C° 0 mm 2 mps 690 mmHg 85%
    05:00 +2°C° 0 mm 2 mps 690 mmHg 86%
    06:00 +2°C° 0 mm 2 mps 690 mmHg 86%
    07:00 +3°C° 0.1 mm 2 mps 690 mmHg 86%
    08:00 +3°C° 0.1 mm 2 mps 690 mmHg 86%
    09:00 +3°C° 0.1 mm 2 mps 691 mmHg 86%
    10:00 +4°C° 0.1 mm 2 mps 691 mmHg 86%
    11:00 +3°C° 0.1 mm 3 mps 690 mmHg 86%
    12:00 +3°C° 0.1 mm 3 mps 690 mmHg 86%
    13:00 +3°C° 0.1 mm 3 mps 690 mmHg 88%
    14:00 +3°C° 0.1 mm 3 mps 690 mmHg 90%
    15:00 +3°C° 0.1 mm 3 mps 690 mmHg 91%
    16:00 +3°C° 0.4 mm 3 mps 690 mmHg 92%
    17:00 +2°C° 0.4 mm 3 mps 691 mmHg 93%
    18:00 +2°C° 0.4 mm 3 mps 691 mmHg 93%
    19:00 +2°C° 0.3 mm 3 mps 691 mmHg 93%
    20:00 +2°C° 0.3 mm 3 mps 691 mmHg 93%
    21:00 +2°C° 0.3 mm 3 mps 691 mmHg 93%
    22:00 +2°C° 0.1 mm 3 mps 691 mmHg 93%
    23:00 +2°C° 0.1 mm 3 mps 691 mmHg 92%

    Day after tomorrow, 17 November, Saturday

    Time Temperature Precipitation Wind Pressure Humidity
    00:00 +2°C° 0.1 mm 3 mps 691 mmHg 92%
    01:00 +2°C° 0.2 mm 3 mps 691 mmHg 92%
    02:00 +2°C° 0.2 mm 3 mps 691 mmHg 91%
    03:00 +3°C° 0.2 mm 2 mps 691 mmHg 91%
    04:00 +3°C° 0.3 mm 2 mps 692 mmHg 91%
    05:00 +2°C° 0.3 mm 2 mps 692 mmHg 91%
    06:00 +2°C° 0.3 mm 2 mps 692 mmHg 91%
    07:00 +3°C° 0.1 mm 2 mps 692 mmHg 89%
    08:00 +4°C° 0.1 mm 1 mps 693 mmHg 87%
    09:00 +4°C° 0.1 mm 1 mps 693 mmHg 86%
    10:00 +5°C° 0 mm 1 mps 693 mmHg 83%
    11:00 +6°C° 0 mm 1 mps 693 mmHg 80%
    12:00 +6°C° 0 mm 1 mps 693 mmHg 78%
    13:00 +6°C° 0 mm 1 mps 693 mmHg 78%
    14:00 +6°C° 0 mm 1 mps 693 mmHg 79%
    15:00 +6°C° 0 mm 1 mps 693 mmHg 80%
    16:00 +5°C° 0.1 mm 1 mps 693 mmHg 82%
    17:00 +5°C° 0.1 mm 1 mps 693 mmHg 85%
    18:00 +4°C° 0.1 mm 1 mps 693 mmHg 87%
    19:00 +4°C° 0.3 mm 1 mps 693 mmHg 86%
    20:00 +4°C° 0.3 mm 1 mps 693 mmHg 84%
    21:00 +3°C° 0.3 mm 1 mps 693 mmHg 82%
    22:00 +3°C° 0.3 mm 1 mps 693 mmHg 80%
    23:00 +3°C° 0.3 mm 1 mps 692 mmHg 78%

    18 November, Sunday

    Time Temperature Precipitation Wind Pressure Humidity
    00:00 +3°C° 0.3 mm 1 mps 692 mmHg 77%
    01:00 +3°C° 0.1 mm 1 mps 692 mmHg 76%
    02:00 +3°C° 0.1 mm 1 mps 692 mmHg 76%
    03:00 +3°C° 0.1 mm 1 mps 692 mmHg 75%
    04:00 +3°C° 0.1 mm 1 mps 692 mmHg 74%
    05:00 +3°C° 0.1 mm 1 mps 691 mmHg 73%
    06:00 +2°C° 0.1 mm 2 mps 691 mmHg 71%
    07:00 +2°C° 0 mm 2 mps 691 mmHg 69%
    08:00 +4°C° 0 mm 1 mps 692 mmHg 66%
    09:00 +5°C° 0 mm 1 mps 692 mmHg 63%
    10:00 +5°C° 0 mm 1 mps 692 mmHg 61%
    11:00 +6°C° 0 mm 1 mps 691 mmHg 59%
    12:00 +7°C° 0 mm 1 mps 691 mmHg 58%
    13:00 +6°C° 0 mm 2 mps 691 mmHg 62%
    14:00 +5°C° 0 mm 2 mps 691 mmHg 67%
    15:00 +5°C° 0 mm 2 mps 691 mmHg 71%
    16:00 +4°C° 0 mm 2 mps 691 mmHg 77%
    17:00 +3°C° 0 mm 2 mps 691 mmHg 82%
    18:00 +3°C° 0 mm 1 mps 691 mmHg 87%
    19:00 +3°C° 0 mm 1 mps 691 mmHg 86%
    20:00 +2°C° 0 mm 2 mps 691 mmHg 85%
    21:00 +2°C° 0 mm 2 mps 691 mmHg 83%
    22:00 +2°C° 0 mm 2 mps 690 mmHg 82%
    23:00 +2°C° 0 mm 2 mps 690 mmHg 80%

    19 November, Monday

    Time Temperature Precipitation Wind Pressure Humidity
    00:00 +2°C° 0 mm 2 mps 690 mmHg 78%
    01:00 +2°C° 0 mm 2 mps 690 mmHg 76%
    02:00 +1°C° 0 mm 2 mps 690 mmHg 75%
    03:00 +2°C° 0 mm 1 mps 690 mmHg 73%
    04:00 +2°C° 0 mm 1 mps 691 mmHg 72%
    05:00 +2°C° 0 mm 1 mps 691 mmHg 71%
    06:00 +2°C° 0 mm 1 mps 691 mmHg 70%
    07:00 +3°C° 0 mm 1 mps 691 mmHg 69%
    08:00 +3°C° 0 mm 1 mps 691 mmHg 68%
    09:00 +4°C° 0 mm 1 mps 691 mmHg 66%
    10:00 +4°C° 0 mm 2 mps 691 mmHg 66%
    11:00 +5°C° 0 mm 2 mps 691 mmHg 66%
    12:00 +5°C° 0 mm 2 mps 690 mmHg 66%
    13:00 +5°C° 0 mm 2 mps 690 mmHg 68%
    14:00 +5°C° 0 mm 2 mps 690 mmHg 69%
    15:00 +5°C° 0 mm 2 mps 690 mmHg 71%
    16:00 +4°C° 0 mm 2 mps 690 mmHg 74%
    17:00 +4°C° 0 mm 2 mps 690 mmHg 77%
    18:00 +3°C° 0 mm 2 mps 690 mmHg 80%
    19:00 +3°C° 0 mm 2 mps 690 mmHg 79%
    20:00 +3°C° 0 mm 2 mps 690 mmHg 78%
    21:00 +3°C° 0 mm 2 mps 690 mmHg 78%
    22:00 +3°C° 0 mm 2 mps 690 mmHg 78%
    23:00 +3°C° 0 mm 2 mps 690 mmHg 79%

    20 November, Tuesday

    Time Temperature Precipitation Wind Pressure Humidity
    00:00 +3°C° 0 mm 2 mps 689 mmHg 79%
    01:00 +3°C° 0 mm 2 mps 689 mmHg 80%
    02:00 +3°C° 0 mm 2 mps 689 mmHg 82%
    03:00 +3°C° 0 mm 2 mps 689 mmHg 83%
    04:00 +3°C° 0 mm 2 mps 689 mmHg 83%
    05:00 +3°C° 0 mm 2 mps 689 mmHg 84%
    06:00 +4°C° 0 mm 1 mps 689 mmHg 85%
    07:00 +5°C° 0.1 mm 1 mps 690 mmHg 85%
    08:00 +5°C° 0.1 mm 1 mps 690 mmHg 84%
    09:00 +6°C° 0.1 mm 1 mps 690 mmHg 83%
    10:00 +6°C° 0.1 mm 1 mps 690 mmHg 81%
    11:00 +6°C° 0.1 mm 2 mps 690 mmHg 79%
    12:00 +7°C° 0.1 mm 2 mps 690 mmHg 77%
    13:00 +7°C° 0 mm 2 mps 690 mmHg 78%
    14:00 +7°C° 0 mm 2 mps 689 mmHg 78%
    15:00 +7°C° 0 mm 2 mps 689 mmHg 79%
    16:00 +6°C° 0 mm 2 mps 690 mmHg 82%
    17:00 +6°C° 0 mm 1 mps 690 mmHg 85%
    18:00 +6°C° 0 mm 1 mps 690 mmHg 89%
    19:00 +6°C° 0.1 mm 1 mps 690 mmHg 88%
    20:00 +6°C° 0.1 mm 1 mps 690 mmHg 87%
    21:00 +6°C° 0.1 mm 1 mps 690 mmHg 87%
    22:00 +6°C° 0.1 mm 1 mps 690 mmHg 87%
    23:00 +6°C° 0.1 mm 1 mps 690 mmHg 87%
    Show more